Temp
58 57 58 58 59 59 58 58 58 57 57 57 56 56 56 58 57 55 56 55 55 55 55 53 52 53 53 53 53 52 52 51 50 49 48 48 48 48 50 48 49 48 48 47 47 46 45 43 45 48 48 49 49 48 49 49 50 50 50 51 52 52 52
59 58 60 60 59 59 57 58 58 58 58 57 56 56 56 56 57 55 55 54 54 54 55 53 53 52 52 51 51 51 50 50 51 50 48 47 47 45 46 46 46 46 46 45 45 46 44 43 42 43 43 47 48 48 48 49 49 50 50 50 52 52 52
60 59 59 58 57 57 57 56 56 56 56 55 54 54 54 54 54 55 54 54 54 55 55 52 52 52 51 51 51 50 50 49 49 49 47 47 47 46 46 45 44 44 44 44 43 42 42 43 42 42 41 40 41 45 47 47 49 49 50 50 50 51 51
58 57 56 55 56 56 56 56 55 54 54 53 53 53 52 53 54 55 53 54 54 54 53 52 51 51 51 50 50 50 49 48 48 47 47 47 46 46 45 45 43 43 42 41 41 41 41 40 41 41 41 43 42 43 47 48 49 49 49 50 50 50 51
58 57 55 54 55 54 55 54 54 53 52 51 51 51 51 52 53 52 53 52 52 51 51 51 51 51 51 51 50 49 48 48 48 48 46 45 45 45 45 45 45 45 44 43 43 43 42 41 40 40 40 41 42 44 47 47 48 49 49 49 51 51 51
59 58 57 56 57 56 55 54 53 51 51 51 50 50 50 51 52 51 51 51 51 51 51 51 51 51 50 50 49 48 48 47 47 46 45 45 45 45 44 45 45 45 44 44 44 43 43 42 41 40 41 42 40 41 45 45 45 49 49 50 50 51 51
59 59 58 57 56 55 54 52 52 52 51 50 50 49 50 51 51 51 51 50 51 51 52 51 51 51 50 49 49 48 47 47 47 46 46 46 45 45 45 44 44 44 44 44 44 44 42 42 41 39 39 41 40 41 43 44 46 45 48 50 51 51 50
59 58 57 56 55 54 53 53 53 53 51 50 49 50 51 50 50 50 51 49 50 50 51 51 51 50 50 50 49 48 47 47 47 47 46 46 45 44 44 45 45 44 44 44 44 43 44 43 42 41 40 38 39 40 40 43 44 44 45 48 51 51 51
58 57 56 56 54 54 55 54 53 52 51 50 49 49 49 49 49 49 49 49 49 50 50 50 50 49 49 48 48 47 47 48 46 46 45 45 44 44 44 44 44 43 44 44 44 44 44 43 43 42 42 40 37 36 39 39 41 42 47 45 49 50 50
57 56 55 55 54 55 55 54 52 51 50 49 49 49 48 48 48 48 48 48 48 49 49 49 49 49 49 48 47 46 46 47 46 45 45 45 44 44 44 44 43 43 43 44 44 44 44 43 43 43 43 41 40 37 35 35 38 39 44 46 43 48 51
57 56 55 55 55 54 53 53 52 51 49 49 49 49 48 48 48 49 47 47 47 48 48 49 49 48 48 47 47 46 46 47 46 46 46 45 45 45 45 44 44 43 44 43 43 44 44 43 43 43 43 43 43 39 38 35 36 41 41 46 47 46 49
57 56 56 56 55 54 53 52 51 49 48 49 49 47 47 47 47 46 47 47 47 47 47 48 48 48 48 46 47 46 46 46 45 45 45 46 45 45 44 43 43 43 43 43 43 43 43 44 43 43 43 43 42 41 39 38 35 41 45 41 45 49 47
57 57 56 55 54 53 53 51 50 48 47 48 46 47 46 46 46 46 46 46 46 46 47 47 47 47 47 46 46 46 46 46 45 45 44 45 45 44 44 43 43 43 43 43 43 43 43 43 43 43 43 42 42 41 41 39 37 37 44 43 44 46 48
56 56 56 55 54 53 52 51 49 47 47 46 46 46 46 45 45 45 46 46 46 46 46 46 47 47 46 45 45 45 45 46 45 44 45 44 44 44 44 44 43 43 43 43 43 43 44 43 43 43 43 43 42 42 41 40 38 38 42 46 45 45 47
55 55 55 54 53 52 50 49 48 47 45 45 46 45 45 45 44 45 45 44 44 45 45 46 46 46 46 45 45 46 45 45 44 44 44 44 44 44 43 44 44 44 43 42 43 44 43 43 42 43 43 42 42 42 43 40 39 38 38 43 44 47 46
54 54 53 52 51 50 49 48 48 46 45 44 45 44 44 43 44 44 44 43 44 44 44 45 45 46 46 46 45 45 45 45 44 44 44 44 44 43 44 44 44 43 44 43 42 42 42 42 42 42 43 43 42 42 43 42 40 38 38 40 43 43 45
53 53 52 51 50 49 48 47 47 45 44 44 43 43 43 43 43 43 43 43 43 43 43 44 44 45 46 46 45 45 44 45 45 45 44 44 43 43 43 43 45 43 43 42 42 42 42 42 42 43 43 43 42 42 43 43 42 40 39 38 41 43 44
51 52 51 50 48 48 47 46 46 45 44 43 43 43 43 43 42 42 42 42 42 42 43 44 44 44 44 45 45 44 44 44 44 44 44 43 45 43 44 45 45 42 42 42 42 43 42 42 43 43 43 43 43 43 43 42 42 41 39 38 40 43 44
50 50 50 48 47 46 46 46 45 45 44 43 42 42 42 42 42 41 41 41 41 41 42 43 43 43 44 44 44 44 45 44 44 44 44 44 43 43 44 43 43 43 42 42 43 42 42 42 42 43 43 44 43 43 41 41 42 41 40 40 40 40 43
49 49 48 47 47 46 46 45 45 44 44 43 42 41 41 41 42 41 41 41 41 41 41 41 41 42 42 43 44 45 44 44 44 44 43 43 43 43 43 43 43 42 42 42 43 43 42 43 43 43 44 43 43 41 41 41 41 40 40 40 41 42 42
49 49 48 47 47 46 46 45 44 44 44 42 41 41 41 41 41 41 41 41 41 41 41 40 40 41 42 43 44 44 44 45 45 44 43 43 43 44 43 43 42 43 43 43 44 45 44 44 44 44 44 43 42 41 41 41 40 40 40 40 40 40 42
49 49 48 47 46 45 45 44 44 43 43 42 42 40 41 40 40 40 40 40 41 41 41 41 41 41 41 41 42 44 44 45 44 44 43 42 42 43 44 43 43 42 48 52 49 47 47 46 45 43 43 42 42 41 40 41 40 40 40 40 40 42 41
48 48 47 47 46 45 45 44 43 43 42 41 41 41 40 40 40 40 40 40 40 41 41 42 45 44 44 43 42 43 43 43 44 44 44 43 44 44 43 43 44 49 49 47 47 45 44 44 45 44 43 43 42 41 41 40 40 40 40 39 40 39 38
49 48 47 47 45 45 44 44 43 42 41 41 40 42 40 39 39 40 40 40 40 40 41 43 43 41 41 42 43 43 44 43 43 43 44 44 43 45 45 44 43 45 47 45 46 45 43 43 42 42 42 43 43 42 41 40 40 41 40 39 40 39 39
48 48 47 46 46 45 44 43 43 42 41 40 41 40 39 39 38 39 39 40 40 41 42 43 40 41 41 42 44 43 43 43 42 41 42 42 44 44 45 43 43 43 44 46 47 44 43 43 42 41 41 41 41 41 41 41 40 40 40 39 38 39 39
48 47 47 46 45 45 44 43 43 42 41 41 40 39 38 38 38 38 40 40 40 41 41 42 40 41 41 41 41 42 42 42 43 41 40 41 42 44 44 44 43 44 44 46 46 43 43 42 42 41 41 41 41 42 40 39 41 42 42 40 39 39 40
47 47 46 46 45 45 44 43 43 43 42 41 39 38 37 38 38 38 39 40 39 39 40 42 40 40 40 40 40 41 41 41 41 40 41 41 42 42 41 42 42 43 43 43 43 43 42 42 40 40 41 41 42 43 41 41 40 40 42 42 41 39 41
47 46 46 46 45 45 44 43 42 42 42 41 39 38 38 37 38 39 39 38 39 39 41 41 39 40 39 39 39 40 40 40 40 40 40 40 40 40 40 40 41 41 41 42 44 43 42 40 39 39 40 41 41 42 42 42 43 44 44 43 42 42 42
47 47 46 46 45 44 43 43 42 42 41 39 39 38 37 38 39 38 38 39 40 38 39 39 39 39 39 39 40 40 39 39 39 40 40 40 40 40 40 40 41 41 42 42 42 40 40 41 39 39 39 40 41 41 42 43 43 43 44 43 43 43 43
46 46 46 46 45 43 43 42 42 42 40 39 39 38 38 38 38 38 38 39 39 38 39 40 39 39 39 38 39 38 38 39 39 39 39 39 39 40 40 41 43 42 42 41 41 39 38 40 39 39 39 39 40 40 41 44 43 41 41 41 41 40 40
48 47 46 45 45 44 44 43 42 43 41 40 39 39 38 37 36 38 39 37 39 39 39 40 39 39 39 39 39 38 38 38 37 38 38 39 39 39 40 46 46 43 41 41 40 38 38 40 40 39 39 38 39 40 41 43 42 42 42 41 41 41 40
48 47 46 46 45 44 43 43 43 43 42 42 41 39 40 37 36 37 37 38 45 40 39 42 40 39 38 39 39 37 38 38 39 37 36 39 40 40 40 41 43 43 43 42 38 38 37 39 40 39 39 38 38 39 41 41 40 40 41 41 41 42 42
48 48 47 46 45 45 45 44 42 42 41 42 41 39 40 38 38 38 39 40 43 39 39 40 41 39 39 39 39 38 37 40 40 39 36 41 41 41 40 40 42 39 38 38 38 37 37 38 40 40 39 39 38 39 42 40 41 41 40 40 40 41 41
48 48 48 47 46 45 45 44 43 42 41 41 41 39 39 38 39 39 38 39 40 39 41 39 40 39 39 39 39 38 37 38 37 37 36 39 37 38 40 41 41 41 39 38 38 37 38 38 39 42 41 40 40 41 40 40 40 40 39 40 40 41 41
49 48 48 47 46 44 45 45 44 43 42 41 41 40 39 39 39 39 38 39 40 39 42 44 37 41 40 39 39 39 38 40 38 38 39 38 38 39 39 40 40 40 38 38 37 37 37 38 38 43 42 38 38 37 40 41 40 40 39 39 40 40 41
48 48 47 47 46 44 44 44 43 43 42 42 42 40 39 39 39 39 39 40 40 40 38 41 42 41 40 39 39 39 38 38 37 41 40 42 40 40 39 39 39 40 38 38 37 37 37 37 40 41 38 37 38 37 39 40 39 38 38 39 39 38 39
49 48 47 46 46 44 43 43 44 44 43 43 42 41 40 39 39 39 40 39 40 40 40 38 41 40 41 39 38 38 38 37 38 39 39 39 39 38 39 39 40 38 38 37 37 37 37 38 40 38 37 37 37 38 39 39 38 38 37 38 38 37 38
MSLP
1021.04 1021.56 1021.84 1022.04 1022.08 1022.20 1022.36 1022.60 1022.64 1022.72 1022.72 1022.76 1022.84 1022.92 1023.00 1023.08 1023.12 1023.20 1023.20 1023.20 1023.20 1023.28 1023.28 1023.40 1023.44 1023.52 1023.52 1023.56 1023.48 1023.48 1023.40 1023.44 1023.44 1023.60 1024.12 1024.20 1023.92 1024.60 1024.72 1024.80 1024.88 1025.08 1025.16 1025.20 1025.20 1024.44 1024.48 1023.88 1023.68 1024.88 1025.20 1024.88 1024.76 1024.96 1024.92 1024.84 1024.76 1024.68 1024.60 1024.48 1024.28 1024.20 1024.08
1021.20 1021.56 1021.76 1021.92 1022.16 1022.32 1022.48 1022.72 1022.76 1022.88 1022.96 1023.04 1023.12 1023.12 1023.16 1023.24 1023.32 1023.40 1023.40 1023.36 1023.44 1023.52 1023.56 1023.68 1023.80 1023.88 1023.92 1023.88 1023.84 1023.76 1023.80 1023.88 1023.92 1024.16 1024.32 1024.84 1024.88 1025.24 1025.00 1025.16 1025.32 1025.44 1025.64 1025.80 1025.76 1025.52 1025.28 1024.20 1023.92 1025.08 1025.28 1025.28 1025.04 1024.92 1024.96 1025.00 1024.92 1024.84 1024.76 1024.68 1024.52 1024.40 1024.24
1021.28 1021.64 1021.84 1022.16 1022.36 1022.48 1022.64 1022.88 1023.04 1023.12 1023.20 1023.32 1023.48 1023.44 1023.44 1023.52 1023.56 1023.56 1023.56 1023.60 1023.68 1023.72 1023.84 1024.00 1024.12 1024.16 1024.16 1024.12 1024.16 1024.16 1024.16 1024.28 1024.48 1024.56 1024.92 1025.28 1025.44 1025.64 1025.60 1025.72 1025.60 1025.72 1025.64 1025.72 1026.08 1026.12 1026.04 1025.96 1025.16 1025.48 1026.28 1026.08 1025.24 1025.16 1025.12 1025.08 1025.00 1024.88 1024.80 1024.64 1024.52 1024.36 1024.20
1021.32 1021.64 1022.04 1022.40 1022.48 1022.64 1022.76 1023.00 1023.20 1023.40 1023.48 1023.60 1023.68 1023.72 1023.76 1023.76 1023.72 1023.72 1023.80 1023.84 1023.92 1024.00 1024.20 1024.32 1024.40 1024.44 1024.44 1024.40 1024.48 1024.44 1024.60 1024.76 1025.04 1025.16 1025.32 1025.60 1025.72 1025.88 1026.00 1026.04 1026.24 1026.24 1026.36 1026.56 1026.96 1026.88 1026.68 1026.44 1025.88 1025.76 1026.20 1026.12 1025.92 1024.92 1024.68 1025.08 1024.92 1024.76 1024.72 1024.56 1024.44 1024.32 1024.20
1021.08 1021.60 1021.96 1022.28 1022.48 1022.64 1022.80 1023.08 1023.36 1023.52 1023.76 1023.84 1023.88 1023.92 1024.00 1024.00 1023.96 1024.04 1024.04 1024.12 1024.24 1024.32 1024.48 1024.56 1024.64 1024.64 1024.64 1024.68 1024.76 1024.88 1025.08 1025.24 1025.40 1025.56 1025.80 1026.04 1026.12 1026.24 1026.36 1026.40 1026.48 1026.60 1026.72 1026.84 1027.04 1027.04 1026.92 1027.32 1027.12 1026.92 1026.68 1026.44 1025.88 1025.72 1025.40 1025.16 1024.96 1024.76 1024.68 1024.48 1024.40 1024.28 1024.16
1021.04 1021.40 1021.80 1022.16 1022.36 1022.52 1022.80 1023.08 1023.36 1023.68 1023.80 1023.88 1024.12 1024.12 1024.24 1024.20 1024.16 1024.20 1024.28 1024.36 1024.52 1024.60 1024.72 1024.72 1024.88 1024.88 1024.88 1025.00 1025.16 1025.36 1025.52 1025.72 1025.92 1026.00 1026.16 1026.40 1026.44 1026.52 1026.76 1026.84 1026.88 1026.88 1027.00 1027.08 1027.12 1027.16 1027.24 1027.32 1027.36 1026.96 1026.92 1027.04 1026.44 1025.84 1025.40 1025.36 1025.08 1024.76 1024.72 1024.56 1024.44 1024.28 1024.12
1021.12 1021.44 1021.84 1022.12 1022.40 1022.64 1022.88 1023.20 1023.44 1023.68 1023.92 1024.16 1024.28 1024.36 1024.44 1024.36 1024.36 1024.44 1024.48 1024.64 1024.72 1024.80 1024.88 1024.96 1025.04 1025.16 1025.20 1025.36 1025.56 1025.76 1026.00 1026.16 1026.24 1026.32 1026.48 1026.64 1026.76 1026.88 1026.96 1027.08 1027.16 1027.20 1027.32 1027.36 1027.36 1027.36 1027.44 1027.36 1027.44 1027.64 1027.48 1026.80 1026.76 1026.28 1025.96 1025.56 1025.40 1025.16 1024.64 1024.60 1024.52 1024.36 1024.20
1021.20 1021.60 1022.00 1022.28 1022.56 1022.84 1023.16 1023.36 1023.68 1023.88 1024.08 1024.36 1024.40 1024.56 1024.56 1024.48 1024.56 1024.60 1024.72 1024.84 1025.00 1025.08 1025.08 1025.20 1025.32 1025.40 1025.52 1025.68 1025.88 1026.12 1026.28 1026.40 1026.52 1026.60 1026.80 1026.84 1027.04 1027.16 1027.24 1027.24 1027.36 1027.48 1027.56 1027.60 1027.60 1027.64 1027.68 1027.76 1027.84 1027.88 1027.60 1026.76 1026.16 1026.16 1026.04 1025.84 1025.68 1025.56 1025.40 1024.88 1024.56 1024.24 1024.12
1021.40 1021.80 1022.24 1022.52 1022.80 1022.96 1023.20 1023.48 1023.84 1024.12 1024.32 1024.48 1024.64 1024.64 1024.76 1024.72 1024.80 1024.92 1025.04 1025.20 1025.28 1025.32 1025.40 1025.48 1025.60 1025.72 1025.88 1026.00 1026.24 1026.36 1026.56 1026.68 1026.80 1026.92 1027.12 1027.16 1027.28 1027.36 1027.44 1027.52 1027.52 1027.76 1027.80 1027.80 1027.80 1027.88 1027.96 1028.00 1027.96 1027.92 1027.80 1027.84 1027.80 1027.40 1027.12 1026.40 1025.84 1025.40 1025.08 1024.92 1024.32 1024.16 1023.92
1021.52 1021.88 1022.24 1022.60 1022.88 1023.16 1023.40 1023.72 1024.04 1024.32 1024.48 1024.60 1024.76 1024.84 1024.92 1025.00 1025.12 1025.20 1025.32 1025.48 1025.56 1025.64 1025.68 1025.80 1025.88 1026.00 1026.12 1026.24 1026.48 1026.64 1026.84 1027.00 1027.00 1027.20 1027.28 1027.36 1027.52 1027.56 1027.60 1027.72 1027.80 1027.92 1028.00 1028.00 1028.04 1028.08 1028.08 1028.00 1027.96 1027.96 1027.92 1027.92 1028.16 1028.36 1028.12 1027.88 1026.96 1026.60 1025.12 1025.20 1025.12 1024.04 1023.92
1021.60 1021.96 1022.28 1022.64 1022.96 1023.28 1023.68 1024.00 1024.24 1024.40 1024.64 1024.76 1024.84 1025.04 1025.08 1025.24 1025.36 1025.48 1025.60 1025.80 1025.92 1025.92 1025.96 1026.08 1026.20 1026.32 1026.40 1026.60 1026.72 1026.88 1027.04 1027.12 1027.20 1027.36 1027.44 1027.48 1027.64 1027.68 1027.80 1027.88 1027.92 1028.00 1028.12 1028.16 1028.20 1028.16 1028.08 1028.00 1027.92 1027.88 1027.96 1028.08 1028.08 1028.16 1028.36 1028.36 1027.52 1026.80 1025.96 1025.32 1025.32 1024.64 1023.92
1021.72 1022.08 1022.40 1022.68 1023.04 1023.40 1023.80 1024.12 1024.36 1024.60 1024.84 1024.92 1025.00 1025.16 1025.32 1025.48 1025.64 1025.84 1025.88 1026.04 1026.12 1026.16 1026.24 1026.40 1026.48 1026.60 1026.60 1026.80 1026.92 1027.08 1027.20 1027.24 1027.32 1027.48 1027.60 1027.60 1027.76 1027.80 1027.88 1027.96 1028.04 1028.08 1028.16 1028.16 1028.16 1028.12 1028.04 1027.96 1027.92 1027.96 1027.92 1028.08 1028.16 1028.20 1028.20 1028.28 1027.96 1026.24 1026.08 1025.56 1024.92 1024.72 1024.36
1021.76 1022.08 1022.40 1022.72 1023.16 1023.56 1023.92 1024.24 1024.48 1024.72 1025.04 1025.16 1025.28 1025.40 1025.52 1025.68 1025.88 1026.00 1026.16 1026.24 1026.32 1026.40 1026.52 1026.68 1026.76 1026.80 1026.88 1026.96 1027.04 1027.16 1027.32 1027.32 1027.44 1027.56 1027.72 1027.84 1027.88 1027.96 1027.96 1027.96 1028.08 1028.08 1028.16 1028.08 1028.04 1028.00 1027.96 1028.00 1028.04 1027.96 1028.00 1027.92 1027.96 1028.08 1028.08 1028.08 1027.92 1026.96 1025.92 1025.68 1025.00 1024.48 1024.20
1021.96 1022.24 1022.56 1022.88 1023.28 1023.76 1024.08 1024.36 1024.60 1024.92 1025.16 1025.36 1025.48 1025.60 1025.76 1025.96 1026.08 1026.20 1026.32 1026.40 1026.48 1026.60 1026.76 1026.96 1027.00 1027.00 1027.04 1027.12 1027.20 1027.24 1027.40 1027.44 1027.56 1027.76 1027.80 1027.96 1028.08 1028.00 1027.96 1027.96 1028.04 1028.12 1028.16 1027.96 1028.00 1028.00 1027.96 1028.04 1028.00 1028.04 1028.00 1027.96 1027.76 1027.72 1027.84 1027.76 1027.48 1026.48 1025.56 1025.32 1024.96 1024.40 1023.80
1022.00 1022.32 1022.68 1023.12 1023.48 1023.92 1024.28 1024.52 1024.72 1025.00 1025.24 1025.64 1025.68 1025.84 1026.04 1026.20 1026.32 1026.40 1026.48 1026.64 1026.72 1026.84 1026.96 1027.04 1027.12 1027.08 1027.12 1027.24 1027.32 1027.36 1027.48 1027.56 1027.68 1027.80 1027.88 1027.92 1028.08 1028.08 1028.00 1027.84 1027.92 1028.00 1028.12 1027.96 1028.04 1028.00 1028.16 1028.08 1028.16 1027.96 1027.88 1027.88 1027.68 1027.44 1027.44 1027.56 1027.16 1027.04 1025.88 1024.88 1024.52 1024.08 1023.84
1022.08 1022.44 1022.84 1023.28 1023.68 1024.04 1024.40 1024.68 1024.84 1025.04 1025.40 1025.72 1025.96 1026.08 1026.28 1026.40 1026.48 1026.56 1026.68 1026.84 1026.88 1026.96 1027.08 1027.16 1027.16 1027.12 1027.20 1027.20 1027.28 1027.40 1027.52 1027.56 1027.64 1027.68 1027.76 1027.92 1028.00 1028.04 1027.92 1027.84 1027.88 1027.96 1028.04 1027.92 1028.08 1028.08 1028.16 1028.12 1028.12 1028.00 1027.76 1027.68 1027.56 1027.36 1027.20 1027.20 1027.20 1026.76 1026.08 1025.16 1024.72 1024.12 1023.56
1022.20 1022.56 1023.00 1023.48 1023.88 1024.28 1024.56 1024.80 1025.04 1025.24 1025.56 1025.80 1026.00 1026.36 1026.48 1026.56 1026.64 1026.68 1026.76 1026.96 1027.00 1027.04 1027.16 1027.20 1027.24 1027.20 1027.20 1027.20 1027.24 1027.40 1027.56 1027.60 1027.64 1027.64 1027.72 1027.92 1028.04 1028.00 1027.88 1027.80 1027.84 1027.96 1028.08 1028.00 1028.08 1028.04 1028.08 1028.12 1028.04 1027.92 1027.68 1027.52 1027.48 1027.28 1027.08 1026.96 1026.92 1027.00 1026.32 1025.64 1024.32 1024.32 1023.44
1022.24 1022.64 1023.12 1023.60 1024.04 1024.44 1024.72 1024.96 1025.16 1025.36 1025.60 1025.88 1026.16 1026.36 1026.60 1026.72 1026.76 1026.80 1026.80 1026.92 1027.04 1027.12 1027.20 1027.20 1027.24 1027.32 1027.32 1027.24 1027.24 1027.40 1027.52 1027.52 1027.60 1027.68 1027.76 1027.96 1028.08 1028.00 1027.92 1027.84 1027.88 1028.00 1028.12 1028.08 1028.08 1028.08 1028.12 1028.00 1027.92 1027.80 1027.60 1027.40 1027.28 1027.16 1027.00 1026.92 1026.80 1026.68 1026.40 1025.76 1024.52 1023.92 1023.76
1022.32 1022.72 1023.16 1023.68 1024.08 1024.40 1024.72 1024.96 1025.20 1025.44 1025.60 1025.92 1026.28 1026.48 1026.64 1026.84 1026.84 1026.92 1027.00 1027.08 1027.16 1027.20 1027.32 1027.32 1027.28 1027.32 1027.32 1027.32 1027.36 1027.44 1027.52 1027.56 1027.64 1027.72 1027.84 1028.12 1028.16 1028.04 1027.92 1027.88 1027.92 1028.08 1028.16 1028.20 1028.16 1028.16 1028.08 1028.00 1027.88 1027.64 1027.48 1027.28 1027.20 1027.16 1027.08 1026.80 1026.60 1026.36 1026.16 1025.60 1025.04 1023.92 1023.20
1022.56 1022.88 1023.24 1023.72 1024.16 1024.44 1024.68 1024.92 1025.04 1025.36 1025.72 1026.00 1026.28 1026.56 1026.80 1026.92 1027.08 1027.00 1027.12 1027.20 1027.24 1027.28 1027.36 1027.44 1027.44 1027.44 1027.40 1027.32 1027.24 1027.28 1027.40 1027.56 1027.72 1027.88 1028.20 1028.24 1028.20 1028.12 1028.00 1028.00 1028.00 1028.12 1028.16 1028.20 1028.20 1028.12 1028.08 1027.88 1027.80 1027.56 1027.36 1027.36 1027.28 1027.28 1027.04 1026.68 1026.44 1026.24 1025.88 1025.40 1024.64 1024.20 1023.56
1022.64 1023.00 1023.44 1023.76 1024.12 1024.44 1024.72 1024.92 1025.16 1025.48 1025.80 1026.16 1026.40 1026.64 1026.80 1026.92 1027.12 1027.12 1027.20 1027.28 1027.40 1027.48 1027.44 1027.52 1027.64 1027.60 1027.52 1027.32 1027.20 1027.20 1027.32 1027.44 1027.56 1028.00 1028.24 1028.36 1028.36 1028.12 1028.04 1028.08 1028.08 1028.16 1028.20 1028.16 1028.12 1028.04 1027.96 1027.88 1027.76 1027.56 1027.36 1027.40 1027.36 1027.24 1026.92 1026.56 1026.32 1026.04 1025.68 1025.16 1024.68 1024.00 1023.40
1022.68 1023.04 1023.44 1023.88 1024.24 1024.48 1024.68 1024.96 1025.32 1025.64 1025.92 1026.24 1026.56 1026.80 1026.96 1027.04 1027.12 1027.20 1027.36 1027.44 1027.48 1027.52 1027.44 1027.48 1027.60 1027.56 1027.44 1027.44 1027.24 1027.20 1027.36 1027.48 1027.68 1027.96 1028.12 1028.24 1028.32 1028.20 1028.08 1028.12 1028.08 1028.08 1028.00 1027.92 1027.96 1027.96 1027.88 1027.80 1027.80 1027.80 1027.56 1027.52 1027.32 1027.12 1026.84 1026.52 1026.24 1025.92 1025.44 1025.04 1024.28 1023.72 1023.40
1022.68 1023.00 1023.40 1023.80 1024.12 1024.40 1024.72 1025.04 1025.40 1025.76 1026.04 1026.32 1026.60 1026.88 1027.04 1027.12 1027.12 1027.16 1027.28 1027.48 1027.52 1027.48 1027.44 1027.56 1027.60 1027.56 1027.32 1027.16 1027.28 1027.36 1027.44 1027.52 1027.64 1027.84 1027.96 1028.04 1028.08 1028.08 1028.08 1028.08 1028.04 1027.96 1028.00 1028.04 1028.00 1027.88 1027.80 1027.72 1027.68 1027.76 1027.68 1027.44 1027.20 1027.00 1026.72 1026.48 1026.08 1025.76 1025.48 1025.00 1024.48 1024.00 1023.48
1022.72 1023.08 1023.36 1023.76 1024.12 1024.40 1024.80 1025.08 1025.48 1025.84 1026.16 1026.40 1026.64 1026.84 1027.04 1027.08 1027.16 1027.28 1027.28 1027.32 1027.36 1027.44 1027.52 1027.56 1027.56 1027.44 1027.24 1027.16 1027.16 1027.28 1027.28 1027.48 1027.64 1027.80 1027.84 1027.88 1027.88 1027.96 1028.00 1028.04 1028.08 1028.08 1028.08 1028.04 1027.96 1027.88 1027.80 1027.76 1027.72 1027.64 1027.48 1027.24 1026.96 1026.80 1026.56 1026.32 1026.08 1025.84 1025.56 1025.16 1024.64 1024.16 1023.64
1022.72 1023.16 1023.60 1024.00 1024.28 1024.52 1024.84 1025.08 1025.44 1025.88 1026.16 1026.44 1026.68 1026.88 1027.00 1027.08 1027.24 1027.36 1027.44 1027.44 1027.36 1027.48 1027.52 1027.60 1027.52 1027.36 1027.28 1027.28 1027.24 1027.32 1027.40 1027.44 1027.60 1027.72 1027.88 1027.88 1027.88 1027.92 1027.92 1027.96 1028.08 1028.28 1028.12 1028.04 1027.96 1028.00 1027.84 1027.80 1027.80 1027.72 1027.48 1027.12 1026.72 1026.44 1026.40 1026.44 1026.16 1025.72 1025.44 1025.20 1024.72 1024.16 1023.64
1022.68 1023.16 1023.60 1024.08 1024.36 1024.64 1024.88 1025.08 1025.44 1025.80 1026.08 1026.40 1026.64 1026.76 1027.00 1027.16 1027.24 1027.40 1027.28 1027.20 1027.36 1027.52 1027.56 1027.68 1027.52 1027.40 1027.36 1027.36 1027.32 1027.32 1027.48 1027.52 1027.48 1027.64 1027.80 1027.88 1027.92 1027.92 1027.96 1028.16 1028.20 1028.12 1028.08 1027.96 1028.04 1028.08 1028.04 1027.96 1027.84 1027.68 1027.36 1026.96 1026.52 1026.24 1026.12 1026.00 1025.96 1025.88 1025.48 1025.16 1024.76 1024.16 1023.64
1022.56 1023.00 1023.36 1023.76 1024.16 1024.56 1024.80 1025.04 1025.40 1025.72 1026.00 1026.40 1026.60 1026.88 1027.12 1027.12 1027.28 1027.28 1027.20 1027.16 1027.40 1027.60 1027.60 1027.68 1027.48 1027.44 1027.44 1027.44 1027.44 1027.44 1027.64 1027.64 1027.76 1027.88 1027.92 1027.96 1028.08 1028.20 1028.32 1028.28 1028.24 1028.04 1028.00 1028.04 1028.12 1028.12 1028.12 1028.12 1028.08 1027.80 1027.32 1026.96 1026.60 1026.16 1025.96 1025.80 1025.64 1025.44 1025.24 1025.00 1024.72 1024.32 1023.32
1022.56 1023.16 1023.52 1023.80 1024.12 1024.44 1024.72 1025.16 1025.48 1025.72 1025.96 1026.24 1026.48 1026.68 1026.92 1027.00 1027.20 1027.24 1027.28 1027.36 1027.40 1027.56 1027.64 1027.68 1027.52 1027.48 1027.52 1027.52 1027.56 1027.60 1027.76 1027.80 1027.88 1027.96 1028.08 1028.12 1028.16 1028.12 1028.20 1028.28 1028.28 1028.24 1028.24 1028.08 1028.08 1028.24 1028.28 1028.20 1028.08 1027.72 1027.32 1026.88 1026.56 1026.20 1025.88 1025.64 1025.36 1025.12 1024.88 1024.64 1024.44 1024.04 1023.40
1022.44 1022.92 1023.24 1023.64 1024.00 1024.44 1024.80 1025.08 1025.44 1025.80 1026.08 1026.44 1026.68 1026.92 1027.12 1027.12 1027.12 1027.20 1027.36 1027.40 1027.32 1027.48 1027.68 1027.72 1027.56 1027.52 1027.56 1027.56 1027.56 1027.64 1027.72 1027.76 1027.84 1027.96 1028.04 1028.16 1028.20 1028.28 1028.32 1028.24 1028.24 1028.20 1028.12 1028.04 1028.04 1028.20 1028.28 1028.20 1027.96 1027.52 1027.08 1026.80 1026.52 1026.16 1025.80 1025.40 1025.20 1024.96 1024.76 1024.40 1024.04 1023.68 1023.16
1022.32 1022.72 1023.16 1023.48 1023.80 1024.20 1024.60 1025.04 1025.44 1025.72 1026.04 1026.36 1026.60 1026.76 1026.80 1026.88 1027.08 1027.20 1027.36 1027.36 1027.24 1027.48 1027.60 1027.72 1027.60 1027.56 1027.56 1027.56 1027.60 1027.76 1027.76 1027.80 1027.88 1027.88 1027.96 1028.12 1028.12 1028.20 1028.28 1028.28 1028.24 1028.24 1028.12 1028.04 1028.04 1028.20 1028.16 1028.04 1027.68 1027.20 1026.96 1026.72 1026.48 1026.12 1025.60 1025.12 1024.92 1024.72 1024.40 1024.04 1023.72 1023.32 1022.88
1021.92 1022.36 1022.92 1023.32 1023.72 1024.16 1024.48 1024.84 1025.20 1025.52 1025.68 1026.16 1026.40 1026.52 1026.68 1026.88 1027.20 1027.24 1027.16 1027.24 1027.24 1027.28 1027.52 1027.64 1027.56 1027.52 1027.52 1027.56 1027.60 1027.68 1027.72 1027.72 1027.84 1027.84 1027.92 1028.04 1028.12 1028.16 1028.32 1028.16 1028.16 1028.16 1028.16 1028.04 1028.08 1028.12 1028.08 1027.84 1027.40 1027.08 1026.92 1026.72 1026.32 1025.92 1025.40 1025.08 1024.88 1024.56 1024.24 1023.84 1023.44 1023.08 1022.64
1021.72 1022.16 1022.68 1023.16 1023.48 1023.92 1024.40 1024.68 1025.00 1025.36 1025.64 1025.88 1026.08 1026.48 1026.68 1026.76 1027.08 1027.24 1027.24 1027.24 1027.28 1027.28 1027.40 1027.48 1027.52 1027.52 1027.52 1027.60 1027.72 1027.80 1027.76 1027.68 1027.64 1027.84 1027.84 1027.76 1027.92 1028.00 1028.12 1028.32 1028.20 1028.12 1028.12 1028.12 1028.12 1028.00 1027.80 1027.68 1027.28 1027.04 1026.92 1026.80 1026.36 1025.88 1025.32 1025.16 1024.96 1024.44 1023.92 1023.52 1023.00 1022.60 1022.08
1021.44 1021.72 1022.24 1022.88 1023.32 1023.64 1024.16 1024.72 1025.08 1025.36 1025.64 1025.80 1026.08 1026.44 1026.60 1026.64 1026.64 1026.92 1027.24 1027.32 1027.28 1027.32 1027.32 1027.40 1027.48 1027.56 1027.64 1027.72 1027.76 1027.80 1027.80 1027.48 1027.60 1027.76 1027.88 1027.84 1027.60 1027.52 1027.72 1027.72 1027.80 1027.84 1027.92 1027.96 1027.88 1027.72 1027.48 1027.40 1027.20 1026.92 1026.84 1026.60 1026.36 1025.80 1025.36 1025.32 1024.92 1024.60 1024.16 1023.84 1023.28 1022.68 1022.24
1021.20 1021.60 1022.00 1022.56 1023.08 1023.56 1024.00 1024.40 1024.88 1025.20 1025.48 1025.84 1026.04 1026.36 1026.52 1026.60 1026.52 1026.72 1027.08 1027.28 1027.32 1027.32 1027.28 1027.28 1027.40 1027.48 1027.64 1027.76 1027.80 1027.72 1027.68 1027.64 1027.76 1027.72 1027.72 1027.72 1027.84 1027.76 1027.68 1027.76 1027.72 1027.76 1027.84 1027.84 1027.80 1027.60 1027.36 1027.04 1026.96 1026.76 1026.60 1026.48 1026.28 1026.00 1025.72 1025.28 1024.76 1024.60 1024.28 1023.80 1023.28 1022.64 1022.04
1021.00 1021.48 1022.04 1022.44 1023.00 1023.56 1023.96 1024.24 1024.52 1024.84 1025.24 1025.56 1025.80 1026.08 1026.48 1026.64 1026.64 1026.68 1026.96 1027.16 1027.20 1027.20 1027.32 1027.28 1027.28 1027.44 1027.56 1027.68 1027.76 1027.80 1027.68 1027.68 1027.80 1027.68 1027.56 1027.56 1027.64 1027.68 1027.88 1027.96 1027.84 1027.72 1027.84 1027.84 1027.68 1027.48 1027.16 1026.88 1026.64 1026.52 1026.32 1026.28 1026.08 1025.80 1025.52 1025.20 1024.88 1024.52 1024.16 1023.68 1023.20 1022.60 1021.96
1021.04 1021.44 1021.96 1022.32 1022.72 1023.36 1023.84 1024.20 1024.48 1024.72 1025.00 1025.32 1025.52 1025.80 1026.28 1026.52 1026.68 1026.68 1026.88 1027.04 1027.16 1027.12 1027.20 1027.32 1027.32 1027.36 1027.48 1027.56 1027.64 1027.72 1027.72 1027.76 1027.84 1027.76 1027.60 1027.44 1027.52 1027.64 1027.88 1027.96 1027.88 1027.84 1027.84 1027.72 1027.52 1027.28 1026.96 1026.72 1026.44 1026.28 1026.24 1026.08 1025.88 1025.68 1025.40 1025.12 1024.84 1024.52 1024.12 1023.68 1023.24 1022.76 1022.12
1020.92 1021.32 1021.76 1022.20 1022.64 1023.16 1023.68 1024.04 1024.40 1024.60 1024.84 1025.08 1025.36 1025.68 1026.20 1026.40 1026.48 1026.52 1026.60 1026.84 1027.00 1027.04 1027.16 1027.28 1027.32 1027.36 1027.36 1027.40 1027.48 1027.52 1027.64 1027.76 1027.84 1027.76 1027.80 1027.64 1027.68 1027.88 1027.80 1027.76 1027.80 1027.72 1027.64 1027.56 1027.36 1027.08 1026.76 1026.52 1026.32 1026.16 1026.12 1026.00 1025.84 1025.68 1025.48 1025.12 1024.76 1024.52 1024.16 1023.60 1023.24 1022.84 1022.28
Wind_Speed
6 7 6 6 5 5 6 5 4 5 6 6 6 6 5 5 5 5 5 5 6 5 5 6 6 6 6 6 7 7 8 7 8 8 7 6 7 4 6 7 8 8 7 8 4 2 2 3 3 2 5 8 4 4 7 8 7 6 6 8 9 9 8
8 7 6 5 6 5 8 5 5 5 5 6 6 5 6 6 4 5 5 6 6 6 5 6 6 7 7 8 8 9 9 9 8 7 8 7 7 5 4 6 5 6 6 7 6 5 5 5 2 5 8 2 2 4 5 7 6 4 5 6 8 7 7
7 6 6 6 6 5 7 6 5 5 5 6 5 6 6 6 6 5 6 6 6 6 6 7 7 8 8 9 9 9 9 11 8 9 9 7 7 6 7 4 5 3 4 5 7 6 4 5 3 5 6 9 7 3 2 6 5 4 3 5 6 6 6
9 8 8 6 6 5 6 5 5 5 5 5 5 5 6 5 6 5 6 6 6 6 6 7 7 7 7 8 9 11 11 11 9 10 10 9 7 8 8 7 7 7 6 6 4 5 5 4 4 5 5 6 5 7 5 7 5 5 3 4 7 6 6
10 8 8 8 6 7 6 6 4 5 5 5 5 5 5 5 5 6 6 6 6 7 7 6 6 7 7 8 8 8 9 9 9 9 9 10 9 7 7 6 6 6 6 5 4 4 5 4 3 3 6 6 1 1 4 7 2 6 4 6 8 7 6
8 8 8 7 6 6 5 6 6 6 5 6 5 6 5 5 5 6 6 6 6 6 6 7 7 8 8 9 8 9 9 9 8 9 8 8 8 7 6 5 5 5 6 4 4 4 3 3 4 5 3 3 3 6 4 4 6 6 1 6 8 7 6
7 7 6 7 5 6 6 6 6 6 6 5 5 5 4 5 6 5 6 6 6 6 6 7 8 8 8 8 8 9 8 7 8 10 9 8 7 8 5 5 5 5 5 4 4 4 4 4 5 5 4 3 2 4 5 4 6 6 2 4 6 6 4
7 7 6 5 7 7 6 6 5 5 6 5 5 4 4 6 6 6 6 7 6 6 7 8 7 8 8 8 7 8 7 7 8 8 8 9 8 8 8 6 6 5 5 4 4 5 4 4 3 3 5 9 7 5 9 4 5 3 5 6 7 6 3
6 7 6 5 5 6 6 6 6 5 5 6 5 5 5 6 7 7 6 7 6 7 7 8 8 8 8 8 7 7 8 5 8 9 7 7 8 8 8 6 6 6 4 4 4 4 4 3 3 3 3 5 7 8 7 9 9 7 6 8 6 3 7
9 9 8 8 7 6 7 6 6 5 6 5 5 4 6 6 6 6 7 6 6 6 7 7 8 8 8 8 8 8 8 6 7 8 7 7 7 6 6 7 6 5 4 4 4 3 3 3 3 3 3 5 3 3 6 5 7 7 8 9 9 6 9
9 9 9 9 7 8 7 6 6 7 6 5 5 5 6 7 6 6 7 6 6 6 7 7 8 8 8 7 7 7 6 7 7 6 5 6 6 5 5 5 5 5 4 4 3 2 3 3 3 3 3 2 2 3 2 5 7 4 7 6 5 8 8
8 8 8 8 8 8 8 6 6 7 6 5 6 6 7 6 6 6 6 6 6 7 7 7 7 7 8 7 6 6 6 7 7 7 5 5 4 5 6 6 5 5 3 4 3 3 3 4 4 3 3 1 1 0 2 2 6 3 3 10 6 7 10
8 9 9 9 8 8 7 7 7 8 6 5 6 6 6 6 6 6 5 6 7 6 7 6 7 7 7 7 7 7 6 7 7 7 5 4 4 4 5 6 5 4 3 4 4 5 5 4 3 3 3 3 2 1 2 3 5 10 7 8 9 10 10
9 8 8 8 9 8 7 6 7 7 6 6 6 6 6 6 6 6 6 6 7 7 7 6 5 6 7 7 6 7 7 7 7 5 5 5 4 4 4 5 4 4 3 5 5 5 5 5 4 3 3 3 4 2 1 3 6 10 7 4 8 9 9
8 8 9 8 9 8 7 7 8 7 8 5 5 7 7 5 5 6 7 7 7 7 7 6 6 6 7 7 6 5 6 6 6 5 5 5 4 3 3 5 4 5 4 5 5 5 4 4 4 5 4 3 4 6 3 3 5 6 12 8 8 7 9
9 10 10 8 9 7 7 7 6 9 7 6 5 5 6 6 6 6 7 6 7 7 6 6 5 7 7 7 7 6 6 6 6 6 5 5 4 3 4 4 4 4 4 6 5 5 4 4 3 4 5 4 5 6 6 3 5 7 9 10 8 11 8
10 10 10 8 10 8 7 7 7 8 7 6 7 5 5 6 6 6 7 6 6 7 6 6 5 6 7 7 7 7 5 5 5 5 5 5 4 3 3 4 3 4 4 5 5 5 4 4 4 4 6 5 5 6 6 6 5 6 6 11 9 9 10
10 10 10 9 10 9 8 8 6 7 8 7 6 6 5 5 6 6 6 7 7 6 6 6 7 6 5 5 7 6 6 5 5 5 4 4 3 4 2 2 3 3 4 5 5 5 5 7 6 5 6 5 5 6 6 6 7 6 8 10 11 7 8
10 11 11 10 11 10 9 8 8 6 7 9 7 6 6 4 5 6 6 6 6 6 5 5 6 6 6 5 5 5 5 5 4 4 4 3 4 3 2 1 2 3 3 4 5 6 6 7 6 7 8 7 6 6 7 7 6 7 7 9 9 13 8
9 10 10 10 9 9 9 8 9 8 6 7 7 7 6 6 4 6 5 5 5 6 6 5 6 5 5 5 6 6 5 5 4 3 3 3 3 3 2 1 2 2 3 4 5 6 6 7 6 8 6 7 7 7 7 7 7 8 8 9 9 8 10
9 10 9 10 9 9 8 8 8 7 7 8 7 7 7 7 5 5 5 5 4 4 5 5 5 5 5 5 6 6 5 5 4 4 4 3 2 3 3 2 2 3 3 4 4 6 6 6 6 7 7 6 6 7 7 7 7 7 8 8 8 10 9
9 10 10 10 9 9 8 8 8 7 7 7 5 6 6 6 7 6 5 5 5 4 5 5 4 5 6 4 5 6 5 5 4 4 3 3 1 2 3 3 3 4 4 7 8 7 7 7 6 6 7 6 7 6 7 6 7 7 7 8 10 8 9
10 10 11 11 10 9 8 8 8 8 8 7 6 6 6 5 6 7 6 5 5 4 4 2 3 6 5 6 6 5 4 4 5 4 4 3 1 2 4 4 4 6 8 7 7 9 11 12 12 8 8 7 6 6 6 7 7 7 7 9 10 11 12
10 11 10 10 10 9 8 8 9 8 8 7 7 6 5 6 6 5 6 6 6 5 3 2 4 7 8 8 6 5 6 5 4 5 4 4 4 3 4 4 4 5 5 6 7 9 11 12 13 13 14 13 11 7 7 7 6 6 8 8 9 10 10
10 10 10 10 10 8 9 10 9 8 8 8 6 5 6 6 6 5 5 6 6 5 4 3 6 8 8 8 6 6 5 5 4 4 4 4 4 4 4 3 3 3 5 6 6 7 9 11 13 14 14 13 13 13 9 7 8 8 8 9 10 10 11
11 11 11 11 10 9 10 9 8 8 8 6 6 6 6 6 5 5 6 7 6 4 4 4 7 9 9 8 8 6 5 5 4 3 2 3 4 4 3 2 5 5 5 8 6 7 7 9 11 13 13 11 12 13 12 12 10 8 8 8 9 11 10
12 11 11 11 10 10 10 9 9 7 7 6 7 6 6 6 5 5 5 7 6 4 4 4 7 8 8 8 8 6 5 5 4 3 3 2 3 2 2 2 3 5 6 6 6 7 7 7 7 7 8 8 8 10 10 11 11 11 9 7 8 10 12
12 11 11 10 10 10 9 9 9 8 7 8 8 7 7 7 5 5 5 6 6 5 3 4 7 8 8 8 8 6 5 5 4 4 4 4 4 4 3 1 1 4 5 6 4 6 6 7 7 6 7 8 8 9 8 8 7 6 7 6 7 9 11
12 11 11 11 10 10 9 10 9 7 6 6 5 5 4 5 6 6 5 5 6 5 3 4 6 7 8 8 8 5 5 5 5 4 4 3 3 2 2 1 3 4 5 6 6 8 7 7 5 6 8 8 8 8 8 7 11 10 9 8 8 9 10
13 12 12 11 11 11 10 9 8 7 8 7 7 6 6 5 5 6 6 5 6 5 3 3 5 7 7 8 6 5 5 5 4 4 4 2 2 2 2 2 2 3 5 6 7 9 9 7 5 6 7 9 8 8 7 7 10 13 14 15 15 16 18
13 12 11 11 11 10 9 8 9 7 9 8 7 7 6 5 4 4 6 6 5 6 4 3 5 6 7 7 6 5 4 5 5 4 3 2 3 2 2 3 3 3 4 6 9 10 8 6 5 6 7 9 10 9 8 7 6 8 12 14 15 15 16
12 12 12 11 11 11 10 10 8 7 7 7 7 6 5 6 5 3 4 4 6 6 4 3 5 6 6 5 5 4 4 5 5 4 3 4 3 2 2 1 3 3 4 7 10 9 8 5 4 5 6 7 9 10 9 9 9 10 9 9 9 10 11
12 13 13 11 10 11 9 9 9 8 7 7 7 6 6 6 7 5 3 2 2 5 4 2 2 6 6 5 5 4 3 5 5 3 3 3 5 5 5 5 4 6 8 9 10 10 10 6 4 5 4 6 8 11 8 9 9 9 10 9 9 10 10
13 11 12 12 10 10 9 10 9 8 8 6 6 6 6 5 5 5 4 4 2 3 2 3 2 4 4 4 4 4 4 5 4 3 3 3 3 3 5 6 6 7 9 11 11 11 10 9 6 4 5 5 6 9 11 7 10 12 8 9 9 9 9
11 10 10 11 11 10 8 9 10 9 7 8 8 7 6 5 5 5 4 4 3 4 2 2 4 3 3 3 3 4 4 4 4 3 3 3 3 3 4 5 5 8 11 11 12 11 10 8 8 4 7 9 13 13 10 7 7 7 7 7 8 9 9
10 9 10 11 12 11 9 9 8 8 9 8 8 7 6 6 5 5 4 4 4 3 3 1 3 3 3 3 2 2 3 2 4 2 1 2 3 5 4 4 5 8 10 11 11 10 9 9 5 5 10 11 12 14 10 6 7 6 7 7 8 9 10
10 10 11 11 11 11 10 9 8 8 8 8 7 6 5 5 5 5 5 5 4 4 3 4 2 3 3 5 3 2 2 1 2 2 2 3 4 4 5 5 6 10 12 12 11 9 9 7 5 9 10 11 12 10 6 7 6 7 7 7 8 9 10
Wind_Direction
121 125 120 109 106 106 91 80 76 65 60 59 68 65 60 65 68 64 64 68 68 58 59 53 59 56 64 56 63 68 69 60 65 79 74 37 64 46 40 54 60 57 48 51 43 89 134 300 314 35 65 341 16 39 30 18 16 18 18 17 16 13 12
116 120 120 111 109 105 96 83 75 71 65 55 46 62 61 52 61 66 64 66 66 64 67 65 63 64 69 73 67 63 66 64 63 72 74 60 56 47 41 41 49 57 54 53 40 37 60 5 301 17 338 2 329 0 29 12 6 13 15 17 15 10 9
121 112 109 114 110 106 100 94 82 76 68 62 44 44 61 56 62 61 65 68 73 74 70 73 75 71 68 70 70 74 73 74 65 67 73 73 67 58 56 59 61 41 60 42 37 23 30 59 17 340 342 342 344 341 33 8 355 4 0 12 8 5 0
130 125 121 114 117 110 106 97 88 75 64 67 61 53 56 56 66 64 70 71 68 73 75 73 74 80 77 77 74 72 69 74 72 73 73 68 70 64 58 54 63 57 66 64 33 30 53 24 345 341 336 356 317 330 3 3 343 356 357 11 7 1 353
138 140 137 138 138 125 119 107 97 83 68 67 64 65 52 52 68 65 66 73 73 75 73 79 78 80 80 77 73 73 74 72 74 76 77 76 71 74 65 58 63 65 62 66 60 48 50 49 49 338 347 331 292 186 310 334 301 347 345 10 4 349 342
139 137 136 133 138 126 122 114 105 100 89 73 57 74 50 56 69 73 70 76 78 75 85 82 80 80 82 80 79 76 77 73 76 82 82 77 78 75 76 59 64 60 60 50 47 53 48 72 47 16 349 330 314 314 334 355 352 335 336 12 352 343 330
132 131 132 132 126 117 118 114 114 114 102 100 91 76 69 76 68 70 80 78 79 87 87 87 85 83 83 84 82 82 80 83 85 85 85 85 77 73 72 75 60 58 60 46 51 52 49 39 35 25 332 319 271 324 324 333 355 351 320 350 337 322 308
128 124 122 122 123 119 111 109 103 103 106 102 93 85 73 81 78 76 74 78 77 81 86 87 85 85 86 85 84 86 84 88 88 87 86 87 83 78 69 68 73 59 55 53 52 53 51 55 59 32 19 9 357 354 350 337 327 344 308 309 326 307 290
115 115 112 104 105 110 113 112 107 100 104 105 85 86 65 79 82 80 72 73 79 83 86 93 95 95 94 94 90 89 89 88 93 88 88 86 82 79 76 70 72 65 55 57 55 53 58 65 69 65 54 63 37 353 343 336 345 326 339 335 320 242 319
129 130 128 122 116 107 107 107 107 108 103 96 98 86 86 74 76 83 82 76 76 84 88 92 97 98 96 94 95 96 93 87 89 91 88 84 82 77 74 71 80 80 66 58 57 61 59 59 62 73 67 67 64 31 344 326 321 322 328 347 338 322 332
128 125 125 124 120 115 110 110 115 108 102 104 100 92 87 82 74 78 86 81 81 83 91 93 98 100 99 94 95 91 98 99 93 86 82 87 81 80 75 69 67 74 72 66 68 60 57 53 48 39 59 65 83 22 315 316 304 292 293 309 305 304 316
125 122 121 121 120 121 123 121 112 110 105 101 100 98 93 89 89 79 86 89 85 86 88 96 101 102 104 104 100 100 96 98 97 92 86 87 81 80 76 72 61 70 57 71 63 49 42 43 27 30 9 38 16 223 281 268 307 258 297 308 293 283 300
127 131 133 129 126 126 124 122 119 109 111 102 100 98 96 97 96 97 87 94 90 89 92 96 105 108 105 106 113 104 100 99 95 92 85 72 82 80 82 73 61 61 37 52 42 29 29 26 29 8 357 330 318 235 241 257 265 284 303 289 289 295 295
129 127 124 122 120 120 122 113 107 114 105 98 108 100 98 97 97 98 97 86 92 97 106 107 112 114 110 110 105 107 103 100 101 102 98 85 73 85 82 79 60 49 40 45 29 23 16 7 358 356 329 327 319 312 268 282 295 297 283 261 292 299 301
128 125 120 122 121 122 120 118 121 112 104 93 98 107 100 99 95 98 97 93 90 95 101 113 124 121 118 115 109 109 111 105 107 110 106 103 89 74 81 73 43 33 34 42 23 20 3 351 349 330 335 329 321 322 326 310 292 299 303 310 299 292 293
131 125 123 123 123 120 118 118 118 116 112 106 87 91 103 102 98 97 96 94 99 96 106 117 128 125 126 126 124 121 123 126 128 128 122 126 119 115 70 54 31 24 19 24 12 358 354 344 327 323 322 329 329 319 319 305 310 305 299 298 300 303 305
129 128 126 128 126 123 121 118 115 112 113 110 105 90 88 101 98 102 101 97 98 109 113 118 122 130 138 136 134 134 135 133 134 140 142 143 133 118 121 58 13 20 27 20 359 347 341 327 329 326 322 329 324 320 316 322 305 291 295 304 308 311 308
134 132 130 131 129 128 125 120 118 117 116 105 103 108 93 93 103 103 110 115 113 117 128 132 127 130 133 141 138 138 140 140 146 154 157 151 140 136 147 88 360 26 33 7 340 340 329 328 319 323 327 324 329 325 320 312 301 290 292 296 298 297 301
137 136 134 134 134 133 130 126 121 112 116 113 107 104 111 106 112 111 108 115 116 120 124 129 130 139 142 137 128 126 133 137 150 159 155 132 126 158 175 240 308 26 24 342 323 319 320 321 315 323 331 330 334 325 310 302 297 297 291 286 294 308 307
139 137 136 135 134 131 129 129 123 121 116 117 120 119 112 111 108 113 115 118 122 125 121 117 123 130 138 140 139 135 130 130 126 126 74 101 129 184 216 233 310 352 310 296 315 318 318 321 327 324 330 333 325 315 305 303 307 303 298 298 299 288 299
139 136 135 135 135 132 127 122 118 117 118 119 121 126 130 125 122 108 116 116 120 119 114 112 114 123 132 146 140 138 142 144 155 84 76 66 130 205 234 267 279 289 294 289 293 316 330 329 335 330 331 329 317 310 308 307 306 306 305 306 304 312 315
138 137 136 134 133 131 124 120 119 121 120 117 113 117 119 122 121 107 97 106 105 102 110 120 143 144 133 130 134 135 143 140 114 104 93 82 68 278 274 279 280 281 315 355 358 349 344 347 350 335 324 321 310 311 304 304 307 307 307 308 307 312 309
143 140 139 140 137 131 125 125 126 125 122 119 120 120 119 117 117 122 117 105 98 95 93 108 146 160 155 143 134 124 118 131 138 132 129 127 121 279 262 269 292 322 348 347 347 351 352 348 344 338 320 313 308 304 306 311 312 314 313 314 319 318 320
144 145 143 136 134 128 126 128 125 124 123 126 129 131 125 121 119 119 120 119 107 97 91 111 135 127 126 128 126 126 128 122 123 134 159 175 184 228 252 281 300 332 337 340 341 353 349 347 342 333 325 320 315 311 315 314 304 315 314 316 310 313 308
143 139 137 137 137 134 133 131 129 130 130 130 128 119 121 123 122 123 115 109 105 108 104 117 124 115 117 117 115 118 116 120 116 120 154 186 203 197 228 277 330 334 320 325 349 353 346 342 335 326 320 319 316 316 310 309 317 316 316 315 315 310 312
142 142 146 147 143 140 137 131 129 133 135 136 126 127 132 125 126 133 124 117 111 114 119 125 121 114 111 109 108 106 99 104 110 112 125 181 193 201 204 7 347 326 321 334 355 354 347 335 324 317 316 316 315 316 318 318 308 294 295 303 303 307 305
150 151 147 143 142 142 140 137 138 137 127 126 129 127 130 130 135 138 134 124 124 130 126 134 122 114 113 112 111 105 108 104 100 94 85 108 131 112 88 95 336 319 323 331 346 354 343 324 314 313 316 314 310 311 318 316 312 302 302 298 303 300 299
147 149 150 146 144 142 137 133 137 142 141 144 145 149 150 144 149 142 135 129 127 127 138 142 127 117 115 113 111 108 102 95 89 78 73 76 95 102 112 143 256 289 303 317 337 354 331 312 308 302 306 309 309 312 307 310 306 312 308 302 293 283 293
149 147 146 147 143 141 140 143 141 139 128 123 120 123 131 135 142 144 148 136 124 126 152 156 133 122 114 109 102 90 97 94 90 84 64 58 50 61 95 27 335 316 319 313 329 339 324 307 295 304 309 305 308 308 307 294 303 307 306 304 300 301 301
152 154 152 151 148 146 144 142 137 138 131 138 142 152 162 161 155 147 147 147 130 134 142 153 130 118 112 108 95 93 99 92 84 76 49 9 17 12 350 283 266 323 317 315 322 328 319 315 301 309 308 309 305 309 307 315 320 317 314 309 306 304 303
154 153 152 153 150 147 143 139 144 150 146 149 155 163 157 138 148 156 145 147 148 134 146 142 118 106 100 95 104 111 108 102 83 55 12 356 351 357 308 341 351 334 327 313 321 322 315 316 311 307 308 312 318 318 313 321 315 315 311 309 308 307 303
155 152 154 156 151 148 151 153 151 146 148 148 153 152 143 138 141 140 148 153 153 136 143 115 94 90 96 102 106 109 110 103 87 49 29 356 327 351 331 319 338 349 327 311 316 313 319 316 296 300 303 308 312 316 319 324 320 318 323 324 318 320 317
160 159 156 153 155 151 147 143 151 152 156 153 148 155 147 149 152 164 164 185 160 152 144 136 87 97 97 116 127 121 130 98 95 74 28 35 360 349 351 340 333 348 334 325 324 322 316 315 291 297 306 313 307 311 317 317 310 317 316 317 309 315 311
161 158 155 154 154 150 153 153 153 155 155 152 144 147 152 158 151 160 175 194 186 180 176 154 125 95 99 108 144 132 113 116 142 119 98 34 45 355 330 328 317 324 326 321 318 313 309 309 312 298 310 286 295 295 307 305 312 318 311 313 313 311 310
156 151 152 149 150 152 157 157 160 158 153 152 158 158 155 158 164 167 176 195 212 217 242 175 160 132 138 127 136 153 127 176 165 133 71 18 344 322 289 300 307 312 313 311 307 304 304 306 311 318 304 307 306 316 322 308 304 313 315 316 318 315 316
152 150 153 155 151 156 158 160 159 155 156 158 159 157 159 162 159 159 179 214 225 227 233 264 159 172 180 182 174 164 187 177 176 155 113 310 298 293 296 287 285 293 300 302 302 301 300 302 311 306 312 317 318 320 321 319 316 320 321 323 324 324 320
152 153 153 153 154 154 161 161 158 163 159 155 163 162 170 163 159 161 181 209 224 234 227 214 238 215 206 198 204 204 229 243 199 190 179 234 260 264 290 295 293 302 302 301 298 296 293 295 299 309 317 316 320 324 321 322 329 328 318 323 329 328 325